Location: Newark
(48.0000°N, 67.0000°E)
Time: 04:34:33
(UTC+00:00)

DUCHIFAT 1 - Pass Details

Date: 08 April 2020
Orbit: 586 x 604 km, 97.9° (Epoch: 27 May)

Event Time Altitude Azimuth Distance (km) Brightness Sun altitude
Rises 20:03:17 0° 23° (NNE) 2,835 ? -34.0°
Reaches altitude 10° 20:05:44 10° 36° (NE) 1,926 ? -33.9°
Enters shadow 20:06:48 16° 46° (NE) 1,581 ? -33.9°
